STARLINK-4033 (52702 NORAD) Tracking and Keplerian Element Data

This shows tracking and keplerian element data for the satellite.

Feedback or suggestion? Click here.




ElementValue
Catalog52702
NameSTARLINK-4033
Epoch Orbit130
Epoch Day192.91667824
Epoch Year2022
RAAN31.0656
Inclination53.2175
Eccentricity0.0001413
Argument of Perigee70.404
Mean Anonmoly82.9257
Mean Motion15.34921788
Decay Rate-0.01067612
L11 52702U 22053AY 22192.91667824 -.01067612 00000+0 -33858-1 0 9999
L22 52702 53.2175 31.0656 0001413 70.4040 82.9257 15.34921788 1301

Live tracking and technical data element details for STARLINK-4033 (NORAD 52702). STARLINK-4033 can be tracked NOW for your location showing map with azimuth and elevation plus other details from your city location.

Track the satellite on the map from your city or location and see movement details for azimuth, elevation, latitude, longitude, range, height, and movement on the map or in text.







IsCatalogInMostPopularTable: catalog: 52702, numindb: 10
Update: records affected: 1



GetName: 52702 STARLINK-4033

Hit Count: updated at: Sat, 13 Aug 2022 23:35:25 GMT